www.pogodaiklimat.ru
ПОГОДА в Рединге
Время
и дата
15:41 07.12
15:54 07.12
16:18 07.12
16:28 07.12
16:54 07.12
17:54 07.12
18:03 07.12
18:54 07.12
19:07 07.12
19:14 07.12
19:54 07.12
20:04 07.12
20:22 07.12
20:35 07.12
20:44 07.12
20:54 07.12
21:17 07.12
21:54 07.12
22:01 07.12
22:16 07.12
22:39 07.12
22:54 07.12
23:01 07.12
23:22 07.12
23:29 07.12
23:41 07.12
23:54 07.12
00:11 08.12
00:14 08.12
00:32 08.12
00:43 08.12
00:54 08.12
01:04 08.12
01:18 08.12
01:25 08.12
01:34 08.12
01:54 08.12
02:54 08.12
03:54 08.12
04:54 08.12
05:54 08.12
06:54 08.12
07:54 08.12
08:54 08.12
09:54 08.12
10:54 08.12
11:54 08.12
12:54 08.12
Ветер
(напр.,м/с)
Видим. Явления Облачность Т
(С)
Тd
(С)
f
(%)
Тe
(С)
Тes
(С)
Комфортность P
(гПа)
Po
(гПа)
Тmin
(С)
Tmax
(С)
R
(мм)
R24
(мм)
S
(см)
З 2 800 м туман 10/10 120 м +11.7 +10.6 93 +10 +10 1006.6
З 2 800 м туман 10/10 90 м +11.7 +10.6 93 +10 +10 1020.0 1006.9
СЗ 2 800 м туман 10/10 60 м +11.7 +10.6 93 +10 +10 1006.6
СЗ 2 200 м туман ?/? +11.7 +10.6 93 +10 +10 1006.9
СЗ 2 400 м туман ?/? +11.1 +10.6 97 +10 +10 1020.4 1007.2
СЗ 2 400 м туман ?/? +11.1 +10.0 93 +10 +10 1020.6 1007.2
СЗ 2 800 м туман ?/? +11.1 +10.0 93 +10 +10 1007.2
штиль 0 800 м туман 10/10 90 м +11.1 +10.6 97 +10 +10 1021.3 1007.9 +11.1 +12.2
З 2 800 м туман 10/10 60 м +11.1 +10.0 93 +10 +10 1008.2
штиль 0 800 м туман 10/10 90 м +11.1 +10.0 93 +10 +10 1008.2
штиль 0 800 м туман ?/? +10.6 +10.0 96 +10 +10 1021.8 1008.6
З 2 2 км дымка 10/10 90 м +11.1 +10.0 93 +10 +10 1008.6
штиль 0 4 км дымка 10/10 90 м +10.6 +10.0 96 +10 +10 1008.6
З 3 6 км дымка 10/10 90 м +10.6 +10.0 96 +8 +8 1008.6
З 3 6 км дымка 10/10 150 м +10.6 +10.0 96 +8 +8 1008.6
З 2 4 км дымка 10/10 150 м +10.6 +9.4 92 +9 +9 1022.1 1008.6
ЮЗ 2 4 км дымка 10/10 120 м +10.6 +9.4 92 +9 +9 1008.9
штиль 0 4 км дымка 8/8 120 м +10.0 +9.4 96 +9 +9 1022.5 1009.2
штиль 0 6 км дымка 8/8 120 м +10.0 +8.9 93 +9 +9 1008.9
З 2 6 км дымка 5/5 120 м +9.4 +8.9 97 +8 +8 1008.9
З 3 6 км дымка 8/8 120 м +10.0 +8.9 93 +8 +8 1008.9
З 2 4 км дымка 10/10 90 м +10.0 +8.9 93 +8 +8 1022.2 1008.9
З 2 5 км дымка 10/10 90 м +9.4 +8.9 97 +8 +8 1008.9
З 2 4 км дымка 10/10 60 м +9.4 +8.3 93 +8 +8 1008.9
СЗ 3 2 км дымка 10/10 60 м +8.9 +7.8 93 +6 +6 1008.9
СЗ 3 2 км дымка ?/? +8.9 +8.3 96 +6 +6 1008.9
СЗ 2 400 м туман ?/? +8.9 +8.3 96 +7 +7 1022.5 1009.2
З 3 800 м туман 10/10 60 м +9.4 +8.3 93 +7 +7 1008.9
З 2 1 км дымка 10/10 60 м +9.4 +8.3 93 +8 +8 1008.9
штиль 0 400 м туман 10/10 60 м +8.9 +8.3 96 +8 +8 1008.9
штиль 0 400 м туман 10/10 60 м +8.9 +8.3 96 +8 +8 1009.2
штиль 0 800 м туман 10/10 60 м +9.4 +8.3 93 +9 +9 1022.5 1009.2 +8.9 +11.1
штиль 0 400 м туман 10/10 60 м +8.9 +8.3 96 +8 +8 1009.2
штиль 0 1 км дымка 10/10 780 м +9.4 +8.3 93 +9 +9 1009.2
З 2 3 км дымка 10/10 1110 м +9.4 +8.3 93 +8 +8 1009.2
штиль 0 5 км дымка 10/10 1170 м +8.9 +8.3 96 +8 +8 1009.2
З 2 6 км дымка 10/10 1200 м +9.4 +8.3 93 +8 +8 1022.4 1009.2
СЗ 2 13 км 10/10 1230 м +8.9 +7.8 93 +7 +7 1023.1 1009.9
СЗ 2 16 км 10/10 900 м +10.0 +7.8 86 +8 +8 1023.2 1009.9
С 4 16 км 2/2 1230 м +9.4 +6.1 80 +7 +7 1023.4 1009.9
СЗ 4 16 км ясно +8.3 +4.4 76 +5 +5 1023.9 1010.6
СЗ 3 16 км ясно +7.8 +3.3 73 +5 +5 1024.6 1011.2 +7.2 +10.6 0.3
СЗ 2 16 км 2/2 1470 м +7.8 +3.9 76 +6 +6 1025.0 1011.6
штиль 0 16 км 2/2 1500 м +8.3 +5.6 83 +8 +8 1024.9 1011.6
З 2 16 км ясно +10.0 +5.6 74 +9 +10 1025.2 1011.9
С 6 16 км 5/5 1200 м +11.1 +4.4 63 +8 +9 1025.6 1012.2
С 5 16 км 10/10 1170 м +10.6 +4.4 65 +8 +8 1025.2 1011.9
С 3 16 км 10/10 1080 м +10.0 +3.3 63 +8 +8 1025.0 1011.6 +6.7 +11.7
Местоположение метеостанции Reading Regional Airport: широта 40.3733 долгота -75.9594 высота над уровнем моря 105 м.
В архиве по умолчанию представлена погода в Рединге за последние 1-2 суток. Обновление информации о фактической погоде в базе происходит ежечасно! Архивные данные за месяц целиком и за предыдущие месяцы Вы можете получить, выбрав интересующий диапазон дат из раскрывающегося списка и нажав кнопку "Ввод!".
Внимание! Архив погоды МЕТАР в базе сайта по станциям, не включенным в климатический монитор, хранится не более 60 дней. Нет смысла пытаться выбрать более раннюю дату.
*Определитесь, кто Вы:
Внимание! Время в таблицах - местное (без учета летнего времени). Для получения всемирного времени необходимо вычесть поправку, которая равна -5 ч.
Смотрите также архив погоды в соседних городах и на ближайших метеорологических станциях:
Партнеры нашего сайта:      
Пояснения к столбцам:
  • Ветер - указаны скорость ветра в м/с - средняя за 10 мин, порывы в срок и между сроками (в фигурных скобках) и направление, откуда дует ветер: С - северный,
  • СВ - северо-восточный, В - восточный, ЮВ - юго-восточный, Ю - южный, ЮЗ - юго-западный, З - западный, СЗ - северо-западный.
  • Видимость - горизонтальная дальность видимости в метрах или километрах. При видимости от 1 до 10 км при отсутствии осадков обычно наблюдается дымка, при ухудшении видимости до 1 км и менее - туман. В сухую погоду видимость может ухудшаться дымом, пылью или мглою.
  • Явления - указаны атмосферные явления, наблюдавшиеся в срок или в последний час перед сроком; фигурными скобками обозначены явления, наблюдавшиеся между сроками (за 1-3 часа до срока); квадратными скобками обозначены град или гололедные отложения с указанием их диаметра в мм.
  • Облачность - указаны через наклонную черту общая и нижняя облачность в баллах и высота нижней границы облаков в метрах; квадратными скобками обозначены формы облаков: Ci - перистые, Cs - перисто-слоистые, Cc - перисто-кучевые, Ac - высококучевые, As - высокослоистые, Sc - слоисто-кучевые, Ns - слоисто-дождевые, Cu - кучевые, Cb - кучево-дождевые. Подробнее классификацию облаков см. в Атласе облаков (PDF).
  • T - Температура воздуха - температура, измеренная на высоте 2 м над землей.
  • Td - Температура точки росы - температура, при понижении до которой содержащийся в воздухе водяной пар достигнет насыщения.
  • f - Относительная влажность воздуха - влажноcть воздуха, измеренная на высоте 2 м над землей.
  • Te - Эффективная температура - температура, которую ощущает одетый по сезону человек в тени. Характеристика душности погоды. При расчете учитывается влияние влажности воздуха и скорости ветра на теплоощущения человека.
  • Tes - Эффективная температура на солнце - температура, которую ощущает человек, с поправкой на солнечный нагрев. Характеристика знойности погоды. Зависит от высоты солнца над горизонтом, облачности и скорости ветра. Ночью, в пасмурную погоду, а также при ветре 12 м/с и более поправка равна нулю.
  • P - Атмосферное давление - приведенное к уровню моря атмосферное давление.
  • Po - Атмосферное давление - измеренное на уровне метеостанции атмосферное давление.
  • Tmin - Минимальная температура - минимум температуры воздуха на высоте 2 м над землей.
  • Tmax - Максимальная температура - максимум температуры воздуха на высоте 2 м над землей.
  • R - Количество осадков - Количество выпавших осадков за период времени, мм. При наведении курсора мыши на число - период времени, за который выпало указанное количество осадков.
  • R24 - Количество осадков - Количество выпавших осадков за 24 часа, мм.
  • S - Снежный покров - Высота снежного покрова, см. При наведении курсора мыши на число - состояние снежного покрова и степень покрытия местности в баллах.